FALCON 9 DEB (48339 NORAD) Tracking and Keplerian Element Data

This shows tracking and keplerian element data for the satellite.

Feedback or suggestion? Click here.




ElementValue
Catalog48339
NameFALCON 9 DEB
Epoch Orbit430
Epoch Day144.81117743
Epoch Year2021
RAAN35.5692
Inclination53.0377
Eccentricity0.0005879
Argument of Perigee249.4022
Mean Anonmoly110.6397
Mean Motion16.46401016
Decay Rate0.09381035
L11 48339U 21036BR 21144.81117743 .09381035 12505-4 20238-3 0 9997
L22 48339 53.0377 35.5692 0005879 249.4022 110.6397 16.46401016 4309

Live tracking and technical data element details for FALCON 9 DEB (NORAD 48339). FALCON 9 DEB can be tracked NOW for your location showing map with azimuth and elevation plus other details from your city location.

Track the satellite on the map from your city or location and see movement details for azimuth, elevation, latitude, longitude, range, height, and movement on the map or in text.







IsCatalogInMostPopularTable: catalog: 48339, numindb: 36
Update: records affected: 1



GetName: 48339 FALCON 9 DEB

Hit Count: updated at: Tue, 03 Aug 2021 21:05:21 GMT